TimeEST,TemperatureF,Dew PointF,Humidity,Sea Level PressureIn,VisibilityMPH,Wind Direction,Wind SpeedMPH,Gust SpeedMPH,PrecipitationIn,Events,Conditions,WindDirDegrees,DateUTC
12:51 AM,37.9,37.0,97,30.12,9.0,WSW,5.8,-,N/A,,Mostly Cloudy,250,2012-12-05 05:51:00
1:51 AM,37.9,36.0,93,30.13,8.0,WSW,8.1,-,N/A,,Mostly Cloudy,240,2012-12-05 06:51:00
2:51 AM,37.9,36.0,93,30.14,8.0,WSW,9.2,-,N/A,,Mostly Cloudy,250,2012-12-05 07:51:00
3:51 AM,37.0,35.1,93,30.14,10.0,West,9.2,-,N/A,,Scattered Clouds,260,2012-12-05 08:51:00
4:51 AM,37.0,34.0,89,30.16,10.0,WSW,8.1,-,N/A,,Scattered Clouds,250,2012-12-05 09:51:00
5:02 AM,37.4,33.8,87,30.15,10.0,WSW,8.1,-,N/A,,Mostly Cloudy,240,2012-12-05 10:02:00
5:51 AM,37.0,34.0,89,30.19,10.0,WNW,5.8,-,N/A,,Overcast,300,2012-12-05 10:51:00
6:51 AM,37.0,35.1,93,30.21,10.0,West,3.5,-,N/A,,Overcast,270,2012-12-05 11:51:00
7:27 AM,35.6,33.8,93,30.19,10.0,WNW,4.6,-,N/A,,Overcast,300,2012-12-05 12:27:00
7:51 AM,36.0,33.1,89,30.22,10.0,WNW,3.5,-,N/A,,Overcast,290,2012-12-05 12:51:00
7:55 AM,37.4,33.8,87,30.19,10.0,WNW,3.5,-,N/A,,Overcast,290,2012-12-05 12:55:00
9:51 AM,37.9,30.9,76,30.28,10.0,NW,13.8,-,N/A,,Mostly Cloudy,310,2012-12-05 14:51:00
10:51 AM,35.6,28.4,75,30.28,10.0,WNW,10.4,-,N/A,,Overcast,300,2012-12-05 15:51:00
11:51 AM,34.0,25.0,70,30.32,10.0,NW,12.7,20.7,N/A,,Overcast,310,2012-12-05 16:51:00
12:51 PM,34.0,23.0,64,30.33,10.0,NW,15.0,-,N/A,,Mostly Cloudy,320,2012-12-05 17:51:00
1:42 PM,35.6,23.0,60,30.29,10.0,NNW,11.5,23.0,N/A,,Overcast,330,2012-12-05 18:42:00
1:51 PM,34.0,21.9,61,30.33,10.0,NNW,12.7,19.6,N/A,,Overcast,340,2012-12-05 18:51:00
2:51 PM,34.0,21.9,61,30.34,10.0,NNW,12.7,19.6,N/A,,Overcast,340,2012-12-05 19:51:00
3:51 PM,34.0,21.0,59,30.35,10.0,NNW,9.2,-,N/A,,Overcast,340,2012-12-05 20:51:00
4:51 PM,34.0,21.9,61,30.37,10.0,NNW,8.1,-,N/A,,Mostly Cloudy,330,2012-12-05 21:51:00
5:33 PM,33.8,23.0,65,30.34,10.0,NNW,9.2,-,N/A,,Mostly Cloudy,340,2012-12-05 22:33:00
5:51 PM,34.0,24.1,67,30.37,10.0,NNW,6.9,-,N/A,,Mostly Cloudy,340,2012-12-05 22:51:00
6:51 PM,33.1,24.1,70,30.37,10.0,North,5.8,-,N/A,,Overcast,350,2012-12-05 23:51:00
7:51 PM,33.1,24.1,70,30.37,10.0,NW,3.5,-,N/A,,Overcast,310,2012-12-06 00:51:00
8:51 PM,33.1,24.1,70,30.37,10.0,North,3.5,-,N/A,,Overcast,350,2012-12-06 01:51:00
9:51 PM,33.1,24.1,70,30.36,10.0,ENE,3.5,-,N/A,,Overcast,60,2012-12-06 02:51:00
10:51 PM,33.1,24.1,70,30.37,10.0,Calm,Calm,-,N/A,,Overcast,0,2012-12-06 03:51:00
11:51 PM,32.0,23.0,69,30.38,10.0,NE,5.8,-,N/A,,Overcast,40,2012-12-06 04:51:00